TimeCST,TemperatureF,Dew PointF,Humidity,Sea Level PressureIn,VisibilityMPH,Wind Direction,Wind SpeedMPH,Gust SpeedMPH,PrecipitationIn,Events,Conditions,WindDirDegrees,DateUTC
12:52 AM,39.0,35.1,86,30.21,10.0,ESE,4.6,-,0.00,,Overcast,120,2012-11-04 05:52:00
1:52 AM,39.0,36.0,89,30.20,9.0,SE,3.5,-,N/A,,Overcast,130,2012-11-04 06:52:00
1:52 AM,39.0,36.0,89,30.20,9.0,ESE,6.9,-,N/A,,Overcast,110,2012-11-04 07:52:00
2:52 AM,39.0,36.0,89,30.20,8.0,ESE,3.5,-,N/A,,Overcast,110,2012-11-04 08:52:00
3:52 AM,39.0,36.0,89,30.20,9.0,ESE,4.6,-,N/A,,Overcast,120,2012-11-04 09:52:00
4:52 AM,39.0,36.0,89,30.20,8.0,SSE,5.8,-,N/A,,Overcast,150,2012-11-04 10:52:00
5:52 AM,39.0,36.0,89,30.19,9.0,SSE,6.9,-,N/A,,Overcast,150,2012-11-04 11:52:00
6:52 AM,39.0,35.1,86,30.19,9.0,South,10.4,-,N/A,,Overcast,170,2012-11-04 12:52:00
7:52 AM,39.0,35.1,86,30.19,8.0,SSE,9.2,-,N/A,,Overcast,160,2012-11-04 13:52:00
8:52 AM,41.0,37.0,86,30.18,8.0,South,8.1,-,N/A,,Overcast,170,2012-11-04 14:52:00
9:52 AM,43.0,36.0,76,30.17,8.0,South,9.2,-,N/A,,Mostly Cloudy,170,2012-11-04 15:52:00
10:52 AM,45.0,36.0,71,30.16,9.0,South,10.4,-,N/A,,Overcast,170,2012-11-04 16:52:00
11:52 AM,46.9,35.1,63,30.14,9.0,South,9.2,-,N/A,,Mostly Cloudy,180,2012-11-04 17:52:00
12:52 PM,46.9,35.1,63,30.12,9.0,South,9.2,-,N/A,,Overcast,180,2012-11-04 18:52:00
1:52 PM,46.9,35.1,63,30.10,9.0,SE,8.1,-,N/A,,Overcast,140,2012-11-04 19:52:00
2:52 PM,46.0,35.1,66,30.09,8.0,SE,8.1,-,N/A,,Overcast,130,2012-11-04 20:52:00
3:52 PM,43.0,37.0,80,30.10,7.0,East,5.8,-,0.01,,Overcast,100,2012-11-04 21:52:00
4:52 PM,42.1,37.9,85,30.11,5.0,East,4.6,-,N/A,,Overcast,100,2012-11-04 22:52:00
5:52 PM,42.1,37.9,85,30.11,5.0,ESE,6.9,-,0.00,Rain,Light Rain,110,2012-11-04 23:52:00
6:52 PM,41.0,39.0,93,30.12,4.0,East,8.1,-,0.02,Rain,Light Rain,100,2012-11-05 00:52:00
7:52 PM,41.0,37.9,89,30.12,4.0,East,8.1,-,0.02,Rain,Light Rain,100,2012-11-05 01:52:00
8:52 PM,41.0,37.9,89,30.12,5.0,East,5.8,-,0.03,Rain,Light Rain,90,2012-11-05 02:52:00
9:52 PM,41.0,37.9,89,30.12,5.0,ESE,5.8,-,0.02,Rain,Light Rain,110,2012-11-05 03:52:00
10:52 PM,39.9,37.9,93,30.10,4.0,ESE,5.8,-,0.03,Rain,Light Rain,110,2012-11-05 04:52:00